sat.trackr.live / text

‹ back to catalog

GOES 14

NORAD 35491 · 2009-033A

PAYLOAD ACTIVE UNKNOWN

§ Identity

Operator
Country
US
Launch date
2009-06-27
Launch site
AFETR
Launch vehicle
Mass (kg)
RCS (m²)
17.65

Purposes: comms, earth_obs

External: N2YO · Heavens-Above · Gunter

§ Orbital elements

Epoch: 2026-05-25T05:02:38.473728Z

Period
1,438.31 min
Inclination
1.6334°
Eccentricity
0.0001892
Mean motion
1.00117173 rev/d
Perigee alt
35,822.0 km
Apogee alt
35,838.0 km
Semi-major
42,208.1 km
B*
0.0000e+0
RAAN
83.3030°
Arg perigee
345.2143°
Mean anomaly
44.7621°
Rev number
636

§ Raw data

GOES 141 35491U 09033A   26145.21016752 -.00000191  00000+0  00000+0 0  99992 35491   1.6334  83.3030 0001892 345.2143  44.7621  1.00117173  6360

JSON: /api/v1/satellites/35491 · /tle

For live sub-satellite position, see the globe view (requires WebGL).

§ Visibility from observer

Set your observer location to see the next 7 days of passes ≥ 10°. The values pass through the URL so the page stays shareable.

No JS? Fill the form by hand. The geolocation button needs JavaScript.

§ Radio — SatNOGS DB

ModeDescriptionDownlinkUplink
BPSK CDA Telemetry 1.694 GHz

1 transmitter · refreshed weekly from db.satnogs.org